Regional Weather Roundup
Issued by NWS

Home | Current Version | Previous Version | Graphics & Text | Print | Product List | Glossary On
Versions: 1 2 3 4 5 6 7 8 9 10 11 12 13 14 15 16 17 18 19 20 21 22 23 24 25 26 27 28 29 30 31 32 33 34 35 36 37 38 39 40 41 42 43 44 45 46 47 48 49 50
000
ASUS43 KLMK 311910
RWRKY
KENTUCKY REGIONAL WEATHER ROUNDUP
NATIONAL WEATHER SERVICE LOUISVILLE KY
300 PM EDT MON AUG 31 2015

NOTE "FAIR" INDICATES FEW OR NO CLOUDS BELOW 12,000 FEET
WITH NO SIGNIFICANT WEATHER AND/OR OBSTRUCTIONS TO VISIBILITY.

KYZ001>023-026-027-061>063-070>075-312000-
WESTERN AND SOUTH CENTRAL KENTUCKY

CITY           SKY/WX    TMP DP  RH WIND       PRES   REMARKS
PADUCAH        SUNNY     86  66  51 E6        30.08F
HENDERSON      PTSUNNY   86  66  51 S5        30.08F
OWENSBORO      MOSUNNY   88  69  53 S5        30.11F HX  92
HOPKINSVILLE   MOSUNNY   84  66  55 VRB1      30.11F
BOWLING GREEN  MOSUNNY   87  65  47 SE9       30.12F
GLASGOW        PTSUNNY   85  63  48 NE3       30.12F
$$

KYZ024-025-028>034-038-045-046-053-312000-
NORTH CENTRAL KENTUCKY

CITY           SKY/WX    TMP DP  RH WIND       PRES   REMARKS
LOUISVILLE/SDF MOSUNNY   88  61  40 S7        30.10F
LOUISVILLE/LOU MOSUNNY   87  62  43 VRB5      30.11F
FORT KNOX      SUNNY     86  63  45 VRB2      30.10F
$$

KYZ035>037-039>044-047>052-055>060-089>105-312000-
NORTHEAST KENTUCKY

CITY           SKY/WX    TMP DP  RH WIND       PRES   REMARKS
LEXINGTON      SUNNY     85  61  44 NW5       30.13F
COVINGTON      MOSUNNY   86  64  47 W8        30.11F
FRANKFORT      SUNNY     85  60  42 SW6       30.12F
$$

KYZ054-064>069-076>088-106>120-312000-
SOUTHEAST KENTUCKY

CITY           SKY/WX    TMP DP  RH WIND       PRES   REMARKS
JACKSON        SUNNY     83  62  49 CALM      30.15F
LONDON         MOSUNNY   85  60  42 E8        30.14F
SOMERSET       MOSUNNY   79  61  53 NE3       30.14F
MIDDLESBORO    MOSUNNY   82  63  53 W3        30.14F
MONTICELLO     PTCLDY    85  66  52 CALM      30.16F
$$




USA.gov is the U.S. government's official web portal to all federal, state and local government web resources and services.